Hourly Weather Changzhou

Today, 27 September, Sunday

Time Temperature Precipitation Wind Pressure Humidity
00:00 +20°C° 0 mm 2 mps 761 mmHg 84%
01:00 +20°C° 0 mm 2 mps 761 mmHg 85%
02:00 +20°C° 0 mm 2 mps 761 mmHg 86%
03:00 +19°C° 0 mm 2 mps 761 mmHg 86%
04:00 +19°C° 0 mm 2 mps 761 mmHg 86%
05:00 +19°C° 0 mm 2 mps 762 mmHg 87%
06:00 +20°C° 0 mm 2 mps 762 mmHg 83%
07:00 +21°C° 0 mm 2 mps 762 mmHg 79%
08:00 +23°C° 0 mm 2 mps 762 mmHg 76%
09:00 +24°C° 0 mm 2 mps 762 mmHg 69%
10:00 +26°C° 0 mm 2 mps 762 mmHg 62%
11:00 +27°C° 0 mm 2 mps 762 mmHg 55%
12:00 +27°C° 0 mm 3 mps 762 mmHg 53%
13:00 +28°C° 0 mm 3 mps 761 mmHg 51%
14:00 +28°C° 0 mm 3 mps 761 mmHg 47%
15:00 +27°C° 0 mm 3 mps 761 mmHg 52%
16:00 +26°C° 0 mm 3 mps 761 mmHg 58%
17:00 +26°C° 0 mm 3 mps 760 mmHg 64%
18:00 +25°C° 0 mm 3 mps 761 mmHg 65%
19:00 +24°C° 0 mm 3 mps 761 mmHg 67%
20:00 +22°C° 0 mm 3 mps 761 mmHg 71%
21:00 +22°C° 0 mm 3 mps 761 mmHg 71%
22:00 +21°C° 0 mm 3 mps 761 mmHg 71%
23:00 +21°C° 0 mm 3 mps 762 mmHg 72%

Tomorrow, 28 September, Monday

Time Temperature Precipitation Wind Pressure Humidity
00:00 +21°C° 0 mm 2 mps 761 mmHg 75%
01:00 +21°C° 0 mm 2 mps 761 mmHg 79%
02:00 +20°C° 0 mm 2 mps 761 mmHg 83%
03:00 +20°C° 0 mm 2 mps 761 mmHg 85%
04:00 +20°C° 0 mm 2 mps 761 mmHg 87%
05:00 +20°C° 0 mm 2 mps 761 mmHg 89%
06:00 +21°C° 0 mm 2 mps 761 mmHg 84%
07:00 +23°C° 0 mm 2 mps 761 mmHg 80%
08:00 +24°C° 0 mm 2 mps 761 mmHg 76%
09:00 +25°C° 0.1 mm 2 mps 761 mmHg 70%
10:00 +26°C° 0.1 mm 2 mps 761 mmHg 64%
11:00 +28°C° 0.1 mm 2 mps 761 mmHg 58%
12:00 +28°C° 0.2 mm 2 mps 760 mmHg 59%
13:00 +28°C° 0.2 mm 3 mps 760 mmHg 59%
14:00 +28°C° 0.2 mm 3 mps 759 mmHg 60%
15:00 +27°C° 0.6 mm 2 mps 759 mmHg 64%
16:00 +26°C° 0.6 mm 2 mps 759 mmHg 68%
17:00 +25°C° 0.6 mm 2 mps 759 mmHg 72%
18:00 +25°C° 0.2 mm 2 mps 759 mmHg 73%
19:00 +24°C° 0.2 mm 3 mps 759 mmHg 75%
20:00 +22°C° 0.2 mm 3 mps 759 mmHg 77%
21:00 +22°C° 0 mm 3 mps 760 mmHg 78%
22:00 +22°C° 0 mm 3 mps 760 mmHg 78%
23:00 +22°C° 0 mm 3 mps 760 mmHg 79%

Day after tomorrow, 29 September, Tuesday

Time Temperature Precipitation Wind Pressure Humidity
00:00 +21°C° 0 mm 3 mps 759 mmHg 79%
01:00 +21°C° 0 mm 3 mps 759 mmHg 79%
02:00 +21°C° 0 mm 2 mps 759 mmHg 79%
03:00 +21°C° 0 mm 2 mps 759 mmHg 79%
04:00 +20°C° 0 mm 2 mps 759 mmHg 80%
05:00 +20°C° 0 mm 2 mps 759 mmHg 80%
06:00 +21°C° 0 mm 2 mps 759 mmHg 78%
07:00 +22°C° 0 mm 3 mps 759 mmHg 76%
08:00 +22°C° 0 mm 3 mps 760 mmHg 74%
09:00 +25°C° 0 mm 3 mps 759 mmHg 69%
10:00 +26°C° 0 mm 3 mps 759 mmHg 63%
11:00 +27°C° 0 mm 3 mps 758 mmHg 58%
12:00 +27°C° 0 mm 2 mps 758 mmHg 57%
13:00 +27°C° 0 mm 2 mps 757 mmHg 55%
14:00 +28°C° 0 mm 1 mps 757 mmHg 54%
15:00 +27°C° 0.1 mm 2 mps 757 mmHg 58%
16:00 +27°C° 0.1 mm 2 mps 757 mmHg 61%
17:00 +26°C° 0.1 mm 2 mps 757 mmHg 65%
18:00 +25°C° 0.1 mm 2 mps 757 mmHg 68%
19:00 +24°C° 0.1 mm 2 mps 758 mmHg 70%
20:00 +24°C° 0.1 mm 3 mps 758 mmHg 72%
21:00 +23°C° 0 mm 2 mps 758 mmHg 74%
22:00 +23°C° 0 mm 2 mps 759 mmHg 75%
23:00 +21°C° 0 mm 2 mps 759 mmHg 76%

30 September, Wednesday

Time Temperature Precipitation Wind Pressure Humidity
00:00 +21°C° 0 mm 2 mps 759 mmHg 76%
01:00 +21°C° 0 mm 2 mps 758 mmHg 76%
02:00 +22°C° 0 mm 1 mps 758 mmHg 76%
03:00 +22°C° 0 mm 1 mps 758 mmHg 76%
04:00 +22°C° 0 mm 1 mps 759 mmHg 75%
05:00 +22°C° 0 mm 1 mps 759 mmHg 74%
06:00 +22°C° 0 mm 1 mps 759 mmHg 72%
07:00 +23°C° 0 mm 1 mps 760 mmHg 69%
08:00 +24°C° 0 mm 2 mps 760 mmHg 67%
09:00 +25°C° 0 mm 2 mps 760 mmHg 62%
10:00 +26°C° 0 mm 2 mps 760 mmHg 57%
11:00 +27°C° 0 mm 2 mps 760 mmHg 52%
12:00 +27°C° 0 mm 2 mps 759 mmHg 52%
13:00 +28°C° 0 mm 1 mps 759 mmHg 51%
14:00 +28°C° 0 mm 1 mps 759 mmHg 51%
15:00 +27°C° 0.1 mm 2 mps 759 mmHg 55%
16:00 +27°C° 0.1 mm 2 mps 759 mmHg 59%
17:00 +26°C° 0.1 mm 2 mps 758 mmHg 63%
18:00 +25°C° 0 mm 3 mps 759 mmHg 66%
19:00 +24°C° 0 mm 3 mps 759 mmHg 70%
20:00 +22°C° 0 mm 3 mps 759 mmHg 73%
21:00 +22°C° 0 mm 3 mps 759 mmHg 73%
22:00 +21°C° 0 mm 3 mps 759 mmHg 73%
23:00 +21°C° 0 mm 3 mps 759 mmHg 73%

1 October, Thursday

Time Temperature Precipitation Wind Pressure Humidity
00:00 +21°C° 0 mm 3 mps 759 mmHg 75%
01:00 +20°C° 0 mm 2 mps 759 mmHg 76%
02:00 +20°C° 0 mm 2 mps 758 mmHg 78%
03:00 +20°C° 0 mm 2 mps 758 mmHg 78%
04:00 +19°C° 0 mm 2 mps 758 mmHg 79%
05:00 +19°C° 0 mm 2 mps 759 mmHg 80%
06:00 +20°C° 0 mm 3 mps 759 mmHg 77%
07:00 +21°C° 0 mm 3 mps 759 mmHg 75%
08:00 +22°C° 0 mm 3 mps 759 mmHg 72%
09:00 +23°C° 0 mm 4 mps 759 mmHg 67%
10:00 +25°C° 0 mm 4 mps 759 mmHg 62%
11:00 +26°C° 0 mm 4 mps 759 mmHg 57%
12:00 +27°C° 0 mm 4 mps 758 mmHg 56%
13:00 +27°C° 0 mm 4 mps 758 mmHg 54%
14:00 +27°C° 0 mm 4 mps 757 mmHg 53%
15:00 +27°C° 0 mm 3 mps 757 mmHg 57%
16:00 +26°C° 0 mm 3 mps 757 mmHg 60%
17:00 +26°C° 0 mm 2 mps 757 mmHg 64%
18:00 +25°C° 0 mm 2 mps 757 mmHg 66%
19:00 +24°C° 0 mm 2 mps 758 mmHg 68%
20:00 +23°C° 0 mm 2 mps 758 mmHg 70%
21:00 +23°C° 0 mm 2 mps 758 mmHg 72%
22:00 +23°C° 0 mm 2 mps 758 mmHg 73%
23:00 +22°C° 0 mm 3 mps 759 mmHg 74%

2 October, Friday

Time Temperature Precipitation Wind Pressure Humidity
00:00 +22°C° 0 mm 3 mps 758 mmHg 76%
01:00 +23°C° 0 mm 2 mps 758 mmHg 78%
02:00 +21°C° 0 mm 2 mps 758 mmHg 79%
03:00 +21°C° 0 mm 2 mps 758 mmHg 79%
04:00 +21°C° 0 mm 2 mps 758 mmHg 79%
05:00 +21°C° 0 mm 2 mps 759 mmHg 78%
06:00 +23°C° 0 mm 2 mps 759 mmHg 76%
07:00 +24°C° 0 mm 2 mps 759 mmHg 75%
08:00 +24°C° 0 mm 1 mps 760 mmHg 73%
09:00 +25°C° 0 mm 1 mps 759 mmHg 69%
10:00 +26°C° 0 mm 1 mps 759 mmHg 66%
11:00 +27°C° 0 mm 1 mps 759 mmHg 63%
12:00 +27°C° 0 mm 1 mps 759 mmHg 58%
13:00 +28°C° 0 mm 1 mps 758 mmHg 54%
14:00 +29°C° 0 mm 1 mps 758 mmHg 50%
15:00 +28°C° 0 mm 2 mps 758 mmHg 54%
16:00 +27°C° 0 mm 2 mps 759 mmHg 59%
17:00 +27°C° 0 mm 2 mps 759 mmHg 63%
18:00 +26°C° 0.1 mm 3 mps 759 mmHg 67%
19:00 +25°C° 0.1 mm 3 mps 759 mmHg 71%
20:00 +23°C° 0.1 mm 4 mps 760 mmHg 75%
21:00 +23°C° 0.3 mm 4 mps 760 mmHg 77%
22:00 +22°C° 0.3 mm 4 mps 760 mmHg 78%
23:00 +22°C° 0.3 mm 4 mps 760 mmHg 80%
Show more